ONEWEB-0397 (50477 NORAD) Tracking and Keplerian Element Data

This shows tracking and keplerian element data for the satellite.

Feedback or suggestion? Click here.




ElementValue
Catalog50477
NameONEWEB-0397
Epoch Orbit130
Epoch Day140.58334491
Epoch Year2022
RAAN305.3602
Inclination87.2258
Eccentricity0.0004331
Argument of Perigee123.5236
Mean Anonmoly180.5678
Mean Motion14.92455969
Decay Rate-0.00055857
L11 50477U 21132J 22140.58334491 -.00055857 00000+0 -55032-2 0 9996
L22 50477 87.2258 305.3602 0004331 123.5236 180.5678 14.92455969 1302

Live tracking and technical data element details for ONEWEB-0397 (NORAD 50477). ONEWEB-0397 can be tracked NOW for your location showing map with azimuth and elevation plus other details from your city location.

Track the satellite on the map from your city or location and see movement details for azimuth, elevation, latitude, longitude, range, height, and movement on the map or in text.







IsCatalogInMostPopularTable: catalog: 50477, numindb: 24
Update: records affected: 1



GetName: 50477 ONEWEB-0397

Hit Count: updated at: Mon, 23 May 2022 21:21:27 GMT